Year,Month,Day,Hour,Minute,Value (Times are PST for temperature in C)
2014,06,20,00,00,11.40
2014,06,20,00,01,11.40
2014,06,20,00,02,11.40
2014,06,20,00,03,11.30
2014,06,20,00,04,11.30
2014,06,20,00,05,11.30
2014,06,20,00,06,11.30
2014,06,20,00,07,11.30
2014,06,20,00,08,11.30
2014,06,20,00,09,11.30
2014,06,20,00,10,11.30
2014,06,20,00,11,11.30
2014,06,20,00,12,11.40
2014,06,20,00,13,11.40
2014,06,20,00,14,11.40
2014,06,20,00,15,11.30
2014,06,20,00,16,11.30
2014,06,20,00,17,11.30
2014,06,20,00,18,11.30
2014,06,20,00,19,11.30
2014,06,20,00,20,11.30
2014,06,20,00,21,11.30
2014,06,20,00,22,11.30
2014,06,20,00,23,11.40
2014,06,20,00,24,11.40
2014,06,20,00,25,11.40
2014,06,20,00,26,11.40
2014,06,20,00,27,11.40
2014,06,20,00,28,11.50
2014,06,20,00,29,11.50
2014,06,20,00,30,11.50
2014,06,20,00,31,11.50
2014,06,20,00,32,11.60
2014,06,20,00,33,11.60
2014,06,20,00,34,11.60
2014,06,20,00,35,11.60
2014,06,20,00,36,11.60
2014,06,20,00,37,11.60
2014,06,20,00,38,11.60
2014,06,20,00,39,11.60
2014,06,20,00,40,11.60
2014,06,20,00,41,11.60
2014,06,20,00,42,11.60
2014,06,20,00,43,11.60
2014,06,20,00,44,11.60
2014,06,20,00,45,11.60
2014,06,20,00,46,11.60
2014,06,20,00,47,11.60
2014,06,20,00,48,11.60
2014,06,20,00,49,11.50
2014,06,20,00,50,11.50
2014,06,20,00,51,11.50
2014,06,20,00,52,11.50
2014,06,20,00,53,11.50
2014,06,20,00,54,11.50
2014,06,20,00,55,11.50
2014,06,20,00,56,11.50
2014,06,20,00,57,11.50
2014,06,20,00,58,11.50
2014,06,20,00,59,11.50
2014,06,20,01,00,11.50
2014,06,20,01,01,11.50
2014,06,20,01,02,11.60
2014,06,20,01,03,11.60
2014,06,20,01,04,11.60
2014,06,20,01,05,11.60
2014,06,20,01,06,11.60
2014,06,20,01,07,11.60
2014,06,20,01,08,11.60
2014,06,20,01,09,11.60
2014,06,20,01,10,11.60
2014,06,20,01,11,11.60
2014,06,20,01,12,11.60
2014,06,20,01,13,11.60
2014,06,20,01,14,11.60
2014,06,20,01,15,11.60
2014,06,20,01,16,11.60
2014,06,20,01,17,11.60
2014,06,20,01,18,11.60
2014,06,20,01,19,11.50
2014,06,20,01,20,11.50
2014,06,20,01,21,11.50
2014,06,20,01,22,11.50
2014,06,20,01,23,11.50
2014,06,20,01,24,11.60
2014,06,20,01,25,11.60
2014,06,20,01,26,11.60
2014,06,20,01,27,11.70
2014,06,20,01,28,11.70
2014,06,20,01,29,11.70
2014,06,20,01,30,11.70
2014,06,20,01,31,11.70
2014,06,20,01,32,11.70
2014,06,20,01,33,11.70
2014,06,20,01,34,11.70
2014,06,20,01,35,11.70
2014,06,20,01,36,11.70
2014,06,20,01,37,11.70
2014,06,20,01,38,11.70
2014,06,20,01,39,11.70
2014,06,20,01,40,11.80
2014,06,20,01,41,11.70
2014,06,20,01,42,11.70
2014,06,20,01,43,11.70
2014,06,20,01,44,11.70
2014,06,20,01,45,11.70
2014,06,20,01,46,11.70
2014,06,20,01,47,11.70
2014,06,20,01,48,11.70
2014,06,20,01,49,11.70
2014,06,20,01,50,11.70
2014,06,20,01,51,11.70
2014,06,20,01,52,11.70
2014,06,20,01,53,11.70
2014,06,20,01,54,11.70
2014,06,20,01,55,11.70
2014,06,20,01,56,11.70
2014,06,20,01,57,11.70
2014,06,20,01,58,11.70
2014,06,20,01,59,11.70
2014,06,20,02,00,11.70
2014,06,20,02,01,11.70
2014,06,20,02,02,11.70
2014,06,20,02,03,11.80
2014,06,20,02,04,11.80
2014,06,20,02,05,11.70
2014,06,20,02,06,11.80
2014,06,20,02,07,11.80
2014,06,20,02,08,11.80
2014,06,20,02,09,11.80
2014,06,20,02,10,11.80
2014,06,20,02,11,11.80
2014,06,20,02,12,11.80
2014,06,20,02,13,11.80
2014,06,20,02,14,11.80
2014,06,20,02,15,11.80
2014,06,20,02,16,11.80
2014,06,20,02,17,11.80
2014,06,20,02,18,11.80
2014,06,20,02,19,11.80
2014,06,20,02,20,11.80
2014,06,20,02,21,11.70
2014,06,20,02,22,11.70
2014,06,20,02,23,11.70
2014,06,20,02,24,11.70
2014,06,20,02,25,11.70
2014,06,20,02,26,11.70
2014,06,20,02,27,11.70
2014,06,20,02,28,11.70
2014,06,20,02,29,11.70
2014,06,20,02,30,11.70
2014,06,20,02,31,11.70
2014,06,20,02,32,11.70
2014,06,20,02,33,11.70
2014,06,20,02,34,11.70
2014,06,20,02,35,11.70
2014,06,20,02,36,11.70
2014,06,20,02,37,11.70
2014,06,20,02,38,11.70
2014,06,20,02,39,11.70
2014,06,20,02,40,11.70
2014,06,20,02,41,11.70
2014,06,20,02,42,11.70
2014,06,20,02,43,11.70
2014,06,20,02,44,11.70
2014,06,20,02,45,11.70
2014,06,20,02,46,11.70
2014,06,20,02,47,11.70
2014,06,20,02,48,11.70
2014,06,20,02,49,11.70
2014,06,20,02,50,11.70
2014,06,20,02,51,11.70
2014,06,20,02,52,11.60
2014,06,20,02,53,11.60
2014,06,20,02,54,11.60
2014,06,20,02,55,11.60
2014,06,20,02,56,11.60
2014,06,20,02,57,11.50
2014,06,20,02,58,11.50
2014,06,20,02,59,11.40
2014,06,20,03,00,11.40
2014,06,20,03,01,11.40
2014,06,20,03,02,11.40
2014,06,20,03,03,11.40
2014,06,20,03,04,11.40
2014,06,20,03,05,11.30
2014,06,20,03,06,11.40
2014,06,20,03,07,11.40
2014,06,20,03,08,11.40
2014,06,20,03,09,11.50
2014,06,20,03,10,11.50
2014,06,20,03,11,11.40
2014,06,20,03,12,11.40
2014,06,20,03,13,11.40
2014,06,20,03,14,11.40
2014,06,20,03,15,11.40
2014,06,20,03,16,11.40
2014,06,20,03,17,11.40
2014,06,20,03,18,11.40
2014,06,20,03,19,11.40
2014,06,20,03,20,11.40
2014,06,20,03,21,11.40
2014,06,20,03,22,11.40
2014,06,20,03,23,11.40
2014,06,20,03,24,11.40
2014,06,20,03,25,11.40
2014,06,20,03,26,11.30
2014,06,20,03,27,11.30
2014,06,20,03,28,11.30
2014,06,20,03,29,11.20
2014,06,20,03,30,11.20
2014,06,20,03,31,11.10
2014,06,20,03,32,11.10
2014,06,20,03,33,11.10
2014,06,20,03,34,11.00
2014,06,20,03,35,11.00
2014,06,20,03,36,11.00
2014,06,20,03,37,11.00
2014,06,20,03,38,11.00
2014,06,20,03,39,11.00
2014,06,20,03,40,11.00
2014,06,20,03,41,11.00
2014,06,20,03,42,10.90
2014,06,20,03,43,11.00
2014,06,20,03,44,11.00
2014,06,20,03,45,11.00
2014,06,20,03,46,11.10
2014,06,20,03,47,11.10
2014,06,20,03,48,11.10
2014,06,20,03,49,11.10
2014,06,20,03,50,11.10
2014,06,20,03,51,11.10
2014,06,20,03,52,11.10
2014,06,20,03,53,11.00
2014,06,20,03,54,10.90
2014,06,20,03,55,10.90
2014,06,20,03,56,10.80
2014,06,20,03,57,10.80
2014,06,20,03,58,10.70
2014,06,20,03,59,10.70
2014,06,20,04,00,10.70
2014,06,20,04,01,10.60
2014,06,20,04,02,10.60
2014,06,20,04,03,10.60
2014,06,20,04,04,10.50
2014,06,20,04,05,10.50
2014,06,20,04,06,10.40
2014,06,20,04,07,10.40
2014,06,20,04,08,10.40
2014,06,20,04,09,10.30
2014,06,20,04,10,10.30
2014,06,20,04,11,10.30
2014,06,20,04,12,10.30
2014,06,20,04,13,10.20
2014,06,20,04,14,10.20
2014,06,20,04,15,10.20
2014,06,20,04,16,10.20
2014,06,20,04,17,10.10
2014,06,20,04,18,10.10
2014,06,20,04,19,10.10
2014,06,20,04,20,10.10
2014,06,20,04,21,10.10
2014,06,20,04,22,10.00
2014,06,20,04,23,10.00
2014,06,20,04,24,10.00
2014,06,20,04,25,9.90
2014,06,20,04,26,9.90
2014,06,20,04,27,9.90
2014,06,20,04,28,9.90
2014,06,20,04,29,9.80
2014,06,20,04,30,9.80
2014,06,20,04,31,9.80
2014,06,20,04,32,9.80
2014,06,20,04,33,9.80
2014,06,20,04,34,9.80
2014,06,20,04,35,9.80
2014,06,20,04,36,9.70
2014,06,20,04,37,9.70
2014,06,20,04,38,9.70
2014,06,20,04,39,9.70
2014,06,20,04,40,9.70
2014,06,20,04,41,9.70
2014,06,20,04,42,9.60
2014,06,20,04,43,9.60
2014,06,20,04,44,9.60
2014,06,20,04,45,9.60
2014,06,20,04,46,9.50
2014,06,20,04,47,9.50
2014,06,20,04,48,9.50
2014,06,20,04,49,9.50
2014,06,20,04,50,9.40
2014,06,20,04,51,9.40
2014,06,20,04,52,9.40
2014,06,20,04,53,9.40
2014,06,20,04,54,9.40
2014,06,20,04,55,9.30
2014,06,20,04,56,9.30
2014,06,20,04,57,9.30
2014,06,20,04,58,9.30
2014,06,20,04,59,9.30
2014,06,20,05,00,9.30
2014,06,20,05,01,9.30
2014,06,20,05,02,9.30
2014,06,20,05,03,9.20
2014,06,20,05,04,9.20
2014,06,20,05,05,9.20
2014,06,20,05,06,9.20
2014,06,20,05,07,9.20
2014,06,20,05,08,9.20
2014,06,20,05,09,9.20
2014,06,20,05,10,9.10
2014,06,20,05,11,9.10
2014,06,20,05,12,9.10
2014,06,20,05,13,9.10
2014,06,20,05,14,9.10
2014,06,20,05,15,9.10
2014,06,20,05,16,9.10
2014,06,20,05,17,9.10
2014,06,20,05,18,9.00
2014,06,20,05,19,9.00
2014,06,20,05,20,9.00
2014,06,20,05,21,9.00
2014,06,20,05,22,9.00
2014,06,20,05,23,9.00
2014,06,20,05,24,9.00
2014,06,20,05,25,9.00
2014,06,20,05,26,9.00
2014,06,20,05,27,9.00
2014,06,20,05,28,9.00
2014,06,20,05,29,9.00
2014,06,20,05,30,9.00
2014,06,20,05,31,8.90
2014,06,20,05,32,8.90
2014,06,20,05,33,8.90
2014,06,20,05,34,8.90
2014,06,20,05,35,8.90
2014,06,20,05,36,8.90
2014,06,20,05,37,8.90
2014,06,20,05,38,8.90
2014,06,20,05,39,8.90
2014,06,20,05,40,8.90
2014,06,20,05,41,8.90
2014,06,20,05,42,8.90
2014,06,20,05,43,8.90
2014,06,20,05,44,8.90
2014,06,20,05,45,8.90
2014,06,20,05,46,8.90
2014,06,20,05,47,8.90
2014,06,20,05,48,8.90
2014,06,20,05,49,8.90
2014,06,20,05,50,8.90
2014,06,20,05,51,8.90
2014,06,20,05,52,8.90
2014,06,20,05,53,8.90
2014,06,20,05,54,8.90
2014,06,20,05,55,8.90
2014,06,20,05,56,8.90
2014,06,20,05,57,8.90
2014,06,20,05,58,8.90
2014,06,20,05,59,8.90
2014,06,20,06,00,8.90
2014,06,20,06,01,8.90
2014,06,20,06,02,8.90
2014,06,20,06,03,8.90
2014,06,20,06,04,8.90
2014,06,20,06,05,8.90
2014,06,20,06,06,8.80
2014,06,20,06,07,8.80
2014,06,20,06,08,8.80
2014,06,20,06,09,8.80
2014,06,20,06,10,8.80
2014,06,20,06,11,8.80
2014,06,20,06,12,8.80
2014,06,20,06,13,8.80
2014,06,20,06,14,8.80
2014,06,20,06,15,8.80
2014,06,20,06,16,8.80
2014,06,20,06,17,8.80
2014,06,20,06,18,8.80
2014,06,20,06,19,8.80
2014,06,20,06,20,8.80
2014,06,20,06,21,8.80
2014,06,20,06,22,8.80
2014,06,20,06,23,8.80
2014,06,20,06,24,8.80
2014,06,20,06,25,8.80
2014,06,20,06,26,8.80
2014,06,20,06,27,8.80
2014,06,20,06,28,8.80
2014,06,20,06,29,8.70
2014,06,20,06,30,8.70
2014,06,20,06,31,8.70
2014,06,20,06,32,8.70
2014,06,20,06,33,8.70
2014,06,20,06,34,8.70
2014,06,20,06,35,8.70
2014,06,20,06,36,8.70
2014,06,20,06,37,8.70
2014,06,20,06,38,8.70
2014,06,20,06,39,8.70
2014,06,20,06,40,8.70
2014,06,20,06,41,8.70
2014,06,20,06,42,8.70
2014,06,20,06,43,8.70
2014,06,20,06,44,8.70
2014,06,20,06,45,8.70
2014,06,20,06,46,8.70
2014,06,20,06,47,8.70
2014,06,20,06,48,8.70
2014,06,20,06,49,8.70
2014,06,20,06,50,8.70
2014,06,20,06,51,8.70
2014,06,20,06,52,8.70
2014,06,20,06,53,8.70
2014,06,20,06,54,8.70
2014,06,20,06,55,8.70
2014,06,20,06,56,8.70
2014,06,20,06,57,8.70
2014,06,20,06,58,8.70
2014,06,20,06,59,8.80
2014,06,20,07,00,8.80
2014,06,20,07,01,8.80
2014,06,20,07,02,8.80
2014,06,20,07,03,8.80
2014,06,20,07,04,8.90
2014,06,20,07,05,8.90
2014,06,20,07,06,9.00
2014,06,20,07,07,9.00
2014,06,20,07,08,9.00
2014,06,20,07,09,9.10
2014,06,20,07,10,9.10
2014,06,20,07,11,9.20
2014,06,20,07,12,9.20
2014,06,20,07,13,9.30
2014,06,20,07,14,9.30
2014,06,20,07,15,9.40
2014,06,20,07,16,9.40
2014,06,20,07,17,9.50
2014,06,20,07,18,9.50
2014,06,20,07,19,9.60
2014,06,20,07,20,9.60
2014,06,20,07,21,9.70
2014,06,20,07,22,9.70
2014,06,20,07,23,9.80
2014,06,20,07,24,9.80
2014,06,20,07,25,9.90
2014,06,20,07,26,9.90
2014,06,20,07,27,10.00
2014,06,20,07,28,10.00
2014,06,20,07,29,10.10
2014,06,20,07,30,10.20
2014,06,20,07,31,10.20
2014,06,20,07,32,10.20
2014,06,20,07,33,10.30
2014,06,20,07,34,10.30
2014,06,20,07,35,10.30
2014,06,20,07,36,10.40
2014,06,20,07,37,10.40
2014,06,20,07,38,10.40
2014,06,20,07,39,10.40
2014,06,20,07,40,10.50
2014,06,20,07,41,10.50
2014,06,20,07,42,10.50
2014,06,20,07,43,10.60
2014,06,20,07,44,10.60
2014,06,20,07,45,10.70
2014,06,20,07,46,10.70
2014,06,20,07,47,10.70
2014,06,20,07,48,10.70
2014,06,20,07,49,10.70
2014,06,20,07,50,10.70
2014,06,20,07,51,10.80
2014,06,20,07,52,10.80
2014,06,20,07,53,10.80
2014,06,20,07,54,10.80
2014,06,20,07,55,10.90
2014,06,20,07,56,10.90
2014,06,20,07,57,11.00
2014,06,20,07,58,11.00
2014,06,20,07,59,11.10
2014,06,20,08,00,11.10
2014,06,20,08,01,11.20
2014,06,20,08,02,11.30
2014,06,20,08,03,11.40
2014,06,20,08,04,11.50
2014,06,20,08,05,11.60
2014,06,20,08,06,11.70
2014,06,20,08,07,11.90
2014,06,20,08,08,12.00
2014,06,20,08,09,12.20
2014,06,20,08,10,12.30
2014,06,20,08,11,12.40
2014,06,20,08,12,12.60
2014,06,20,08,13,12.70
2014,06,20,08,14,12.80
2014,06,20,08,15,12.90
2014,06,20,08,16,13.00
2014,06,20,08,17,13.10
2014,06,20,08,18,13.20
2014,06,20,08,19,13.30
2014,06,20,08,20,13.40
2014,06,20,08,21,13.50
2014,06,20,08,22,13.50
2014,06,20,08,23,13.60
2014,06,20,08,24,13.70
2014,06,20,08,25,13.70
2014,06,20,08,26,13.80
2014,06,20,08,27,13.90
2014,06,20,08,28,14.00
2014,06,20,08,29,14.10
2014,06,20,08,30,14.20
2014,06,20,08,31,14.20
2014,06,20,08,32,14.20
2014,06,20,08,33,14.20
2014,06,20,08,34,14.20
2014,06,20,08,35,14.20
2014,06,20,08,36,14.20
2014,06,20,08,37,14.10
2014,06,20,08,38,14.10
2014,06,20,08,39,14.10
2014,06,20,08,40,14.10
2014,06,20,08,41,14.10
2014,06,20,08,42,14.10
2014,06,20,08,43,14.10
2014,06,20,08,44,14.10
2014,06,20,08,45,14.10
2014,06,20,08,46,14.10
2014,06,20,08,47,14.10
2014,06,20,08,48,14.10
2014,06,20,08,49,14.10
2014,06,20,08,50,14.10
2014,06,20,08,51,14.10
2014,06,20,08,52,14.10
2014,06,20,08,53,14.20
2014,06,20,08,54,14.20
2014,06,20,08,55,14.20
2014,06,20,08,56,14.30
2014,06,20,08,57,14.30
2014,06,20,08,58,14.30
2014,06,20,08,59,14.30
2014,06,20,09,00,14.40
2014,06,20,09,01,14.40
2014,06,20,09,02,14.50
2014,06,20,09,03,14.50
2014,06,20,09,04,14.50
2014,06,20,09,05,14.60
2014,06,20,09,06,14.70
2014,06,20,09,07,14.70
2014,06,20,09,08,14.80
2014,06,20,09,09,14.80
2014,06,20,09,10,14.90
2014,06,20,09,11,15.00
2014,06,20,09,12,15.00
2014,06,20,09,13,15.10
2014,06,20,09,14,15.10
2014,06,20,09,15,15.10
2014,06,20,09,16,15.10
2014,06,20,09,17,15.10
2014,06,20,09,18,15.10
2014,06,20,09,19,15.20
2014,06,20,09,20,15.20
2014,06,20,09,21,15.30
2014,06,20,09,22,15.40
2014,06,20,09,23,15.50
2014,06,20,09,24,15.60
2014,06,20,09,25,15.60
2014,06,20,09,26,15.60
2014,06,20,09,27,15.60
2014,06,20,09,28,15.60
2014,06,20,09,29,15.60
2014,06,20,09,30,15.60
2014,06,20,09,31,15.70
2014,06,20,09,32,15.70
2014,06,20,09,33,15.80
2014,06,20,09,34,15.90
2014,06,20,09,35,15.90
2014,06,20,09,36,16.00
2014,06,20,09,37,16.00
2014,06,20,09,38,16.10
2014,06,20,09,39,16.10
2014,06,20,09,40,16.20
2014,06,20,09,41,16.20
2014,06,20,09,42,16.30
2014,06,20,09,43,16.30
2014,06,20,09,44,16.30
2014,06,20,09,45,16.40
2014,06,20,09,46,16.40
2014,06,20,09,47,16.40
2014,06,20,09,48,16.40
2014,06,20,09,49,16.40
2014,06,20,09,50,16.40
2014,06,20,09,51,16.30
2014,06,20,09,52,16.30
2014,06,20,09,53,16.30
2014,06,20,09,54,16.20
2014,06,20,09,55,16.20
2014,06,20,09,56,16.10
2014,06,20,09,57,16.10
2014,06,20,09,58,16.00
2014,06,20,09,59,15.90
2014,06,20,10,00,15.90
2014,06,20,10,01,15.90
2014,06,20,10,02,15.90
2014,06,20,10,03,15.90
2014,06,20,10,04,15.90
2014,06,20,10,05,15.80
2014,06,20,10,06,15.80
2014,06,20,10,07,15.80
2014,06,20,10,08,15.70
2014,06,20,10,09,15.70
2014,06,20,10,10,15.70
2014,06,20,10,11,15.70
2014,06,20,10,12,15.70
2014,06,20,10,13,15.80
2014,06,20,10,14,15.80
2014,06,20,10,15,15.90
2014,06,20,10,16,16.00
2014,06,20,10,17,16.00
2014,06,20,10,18,16.10
2014,06,20,10,19,16.10
2014,06,20,10,20,16.10
2014,06,20,10,21,16.10
2014,06,20,10,22,16.10
2014,06,20,10,23,16.20
2014,06,20,10,24,16.20
2014,06,20,10,25,16.20
2014,06,20,10,26,16.20
2014,06,20,10,27,16.20
2014,06,20,10,28,16.20
2014,06,20,10,29,16.20
2014,06,20,10,30,16.10
2014,06,20,10,31,16.00
2014,06,20,10,32,16.00
2014,06,20,10,33,15.90
2014,06,20,10,34,15.80
2014,06,20,10,35,15.70
2014,06,20,10,36,15.60
2014,06,20,10,37,15.50
2014,06,20,10,38,15.50
2014,06,20,10,39,15.40
2014,06,20,10,40,15.30
2014,06,20,10,41,15.30
2014,06,20,10,42,15.30
2014,06,20,10,43,15.30
2014,06,20,10,44,15.30
2014,06,20,10,45,15.30
2014,06,20,10,46,15.30
2014,06,20,10,47,15.30
2014,06,20,10,48,15.20
2014,06,20,10,49,15.20
2014,06,20,10,50,15.20
2014,06,20,10,51,15.10
2014,06,20,10,52,15.10
2014,06,20,10,53,15.10
2014,06,20,10,54,15.00
2014,06,20,10,55,15.00
2014,06,20,10,56,14.90
2014,06,20,10,57,14.80
2014,06,20,10,58,14.80
2014,06,20,10,59,14.80
2014,06,20,11,00,14.80
2014,06,20,11,01,14.80
2014,06,20,11,02,14.80
2014,06,20,11,03,14.80
2014,06,20,11,04,14.80
2014,06,20,11,05,14.80
2014,06,20,11,06,14.80
2014,06,20,11,07,14.80
2014,06,20,11,08,14.90
2014,06,20,11,09,14.90
2014,06,20,11,10,14.90
2014,06,20,11,11,15.00
2014,06,20,11,12,15.00
2014,06,20,11,13,15.10
2014,06,20,11,14,15.10
2014,06,20,11,15,15.20
2014,06,20,11,16,15.30
2014,06,20,11,17,15.40
2014,06,20,11,18,15.50
2014,06,20,11,19,15.60
2014,06,20,11,20,15.70
2014,06,20,11,21,15.80
2014,06,20,11,22,15.90
2014,06,20,11,23,16.00
2014,06,20,11,24,16.10
2014,06,20,11,25,16.20
2014,06,20,11,26,16.20
2014,06,20,11,27,16.30
2014,06,20,11,28,16.40
2014,06,20,11,29,16.50
2014,06,20,11,30,16.60
2014,06,20,11,31,16.60
2014,06,20,11,32,16.60
2014,06,20,11,33,16.70
2014,06,20,11,34,16.70
2014,06,20,11,35,16.70
2014,06,20,11,36,16.70
2014,06,20,11,37,16.70
2014,06,20,11,38,16.70
2014,06,20,11,39,16.70
2014,06,20,11,40,16.60
2014,06,20,11,41,16.60
2014,06,20,11,42,16.60
2014,06,20,11,43,16.60
2014,06,20,11,44,16.50
2014,06,20,11,45,16.50
2014,06,20,11,46,16.50
2014,06,20,11,47,16.50
2014,06,20,11,48,16.50
2014,06,20,11,49,16.40
2014,06,20,11,50,16.40
2014,06,20,11,51,16.40
2014,06,20,11,52,16.30
2014,06,20,11,53,16.30
2014,06,20,11,54,16.30
2014,06,20,11,55,16.30
2014,06,20,11,56,16.30
2014,06,20,11,57,16.30
2014,06,20,11,58,16.30
2014,06,20,11,59,16.30
2014,06,20,12,00,16.30
2014,06,20,12,01,16.40
2014,06,20,12,02,16.50
2014,06,20,12,03,16.60
2014,06,20,12,04,16.60
2014,06,20,12,05,16.70
2014,06,20,12,06,16.70
2014,06,20,12,07,16.70
2014,06,20,12,08,16.70
2014,06,20,12,09,16.70
2014,06,20,12,10,16.70
2014,06,20,12,11,16.70
2014,06,20,12,12,16.70
2014,06,20,12,13,16.70
2014,06,20,12,14,16.80
2014,06,20,12,15,16.80
2014,06,20,12,16,16.80
2014,06,20,12,17,16.70
2014,06,20,12,18,16.70
2014,06,20,12,19,16.60
2014,06,20,12,20,16.50
2014,06,20,12,21,16.40
2014,06,20,12,22,16.40
2014,06,20,12,23,16.30
2014,06,20,12,24,16.30
2014,06,20,12,25,16.30
2014,06,20,12,26,16.30
2014,06,20,12,27,16.30
2014,06,20,12,28,16.30
2014,06,20,12,29,16.30
2014,06,20,12,30,16.40
2014,06,20,12,31,16.40
2014,06,20,12,32,16.40
2014,06,20,12,33,16.50
2014,06,20,12,34,16.50
2014,06,20,12,35,16.60
2014,06,20,12,36,16.60
2014,06,20,12,37,16.60
2014,06,20,12,38,16.60
2014,06,20,12,39,16.70
2014,06,20,12,40,16.70
2014,06,20,12,41,16.70
2014,06,20,12,42,16.80
2014,06,20,12,43,16.80
2014,06,20,12,44,16.90
2014,06,20,12,45,17.00
2014,06,20,12,46,17.00
2014,06,20,12,47,17.10
2014,06,20,12,48,17.20
2014,06,20,12,49,17.30
2014,06,20,12,50,17.50
2014,06,20,12,51,17.50
2014,06,20,12,52,17.60
2014,06,20,12,53,17.70
2014,06,20,12,54,17.70
2014,06,20,12,55,17.80
2014,06,20,12,56,17.90
2014,06,20,12,57,17.90
2014,06,20,12,58,17.80
2014,06,20,12,59,17.80
2014,06,20,13,00,17.80
2014,06,20,13,01,17.80
2014,06,20,13,02,17.90
2014,06,20,13,03,18.00
2014,06,20,13,04,18.10
2014,06,20,13,05,18.20
2014,06,20,13,06,18.10
2014,06,20,13,07,18.00
2014,06,20,13,08,17.90
2014,06,20,13,09,17.80
2014,06,20,13,10,17.60
2014,06,20,13,11,17.50
2014,06,20,13,12,17.40
2014,06,20,13,13,17.50
2014,06,20,13,14,17.60
2014,06,20,13,15,17.70
2014,06,20,13,16,17.80
2014,06,20,13,17,17.70
2014,06,20,13,18,17.70
2014,06,20,13,19,17.70
2014,06,20,13,20,17.60
2014,06,20,13,21,17.50
2014,06,20,13,22,17.50
2014,06,20,13,23,17.50
2014,06,20,13,24,17.50
2014,06,20,13,25,17.60
2014,06,20,13,26,17.70
2014,06,20,13,27,17.90
2014,06,20,13,28,18.00
2014,06,20,13,29,18.10
2014,06,20,13,30,18.20
2014,06,20,13,31,18.30
2014,06,20,13,32,18.50
2014,06,20,13,33,18.50
2014,06,20,13,34,18.60
2014,06,20,13,35,18.60
2014,06,20,13,36,18.60
2014,06,20,13,37,18.60
2014,06,20,13,38,18.60
2014,06,20,13,39,18.70
2014,06,20,13,40,18.60
2014,06,20,13,41,18.50
2014,06,20,13,42,18.40
2014,06,20,13,43,18.30
2014,06,20,13,44,18.40
2014,06,20,13,45,18.40
2014,06,20,13,46,18.50
2014,06,20,13,47,18.60
2014,06,20,13,48,18.70
2014,06,20,13,49,18.80
2014,06,20,13,50,18.80
2014,06,20,13,51,18.80
2014,06,20,13,52,18.80
2014,06,20,13,53,18.80
2014,06,20,13,54,18.80
2014,06,20,13,55,18.80
2014,06,20,13,56,18.80
2014,06,20,13,57,18.80
2014,06,20,13,58,18.90
2014,06,20,13,59,18.90
2014,06,20,14,00,18.90
2014,06,20,14,01,18.80
2014,06,20,14,02,18.70
2014,06,20,14,03,18.60
2014,06,20,14,04,18.30
2014,06,20,14,05,18.20
2014,06,20,14,06,18.20
2014,06,20,14,07,18.20
2014,06,20,14,08,18.20
2014,06,20,14,09,18.20
2014,06,20,14,10,18.20
2014,06,20,14,11,18.20
2014,06,20,14,12,18.20
2014,06,20,14,13,18.30
2014,06,20,14,14,18.30
2014,06,20,14,15,18.30
2014,06,20,14,16,18.40
2014,06,20,14,17,18.40
2014,06,20,14,18,18.40
2014,06,20,14,19,18.40
2014,06,20,14,20,18.40
2014,06,20,14,21,18.40
2014,06,20,14,22,18.40
2014,06,20,14,23,18.40
2014,06,20,14,24,18.50
2014,06,20,14,25,18.50
2014,06,20,14,26,18.50
2014,06,20,14,27,18.50
2014,06,20,14,28,18.40
2014,06,20,14,29,18.30
2014,06,20,14,30,18.20
2014,06,20,14,31,18.00
2014,06,20,14,32,17.80
2014,06,20,14,33,17.50
2014,06,20,14,34,17.30
2014,06,20,14,35,17.20
2014,06,20,14,36,17.20
2014,06,20,14,37,17.10
2014,06,20,14,38,17.00
2014,06,20,14,39,17.00
2014,06,20,14,40,16.90
2014,06,20,14,41,16.90
2014,06,20,14,42,16.90
2014,06,20,14,43,16.90
2014,06,20,14,44,16.80
2014,06,20,14,45,16.80
2014,06,20,14,46,16.80
2014,06,20,14,47,16.80
2014,06,20,14,48,16.80
2014,06,20,14,49,16.70
2014,06,20,14,50,16.70
2014,06,20,14,51,16.70
2014,06,20,14,52,16.60
2014,06,20,14,53,16.60
2014,06,20,14,54,16.50
2014,06,20,14,55,16.50
2014,06,20,14,56,16.40
2014,06,20,14,57,16.40
2014,06,20,14,58,16.30
2014,06,20,14,59,16.20
2014,06,20,15,00,16.20
2014,06,20,15,01,16.20
2014,06,20,15,02,16.20
2014,06,20,15,03,16.20
2014,06,20,15,04,16.20
2014,06,20,15,05,16.20
2014,06,20,15,06,16.20
2014,06,20,15,07,16.20
2014,06,20,15,08,16.10
2014,06,20,15,09,16.10
2014,06,20,15,10,16.00
2014,06,20,15,11,15.90
2014,06,20,15,12,15.80
2014,06,20,15,13,15.80
2014,06,20,15,14,15.70
2014,06,20,15,15,15.60
2014,06,20,15,16,15.50
2014,06,20,15,17,15.50
2014,06,20,15,18,15.40
2014,06,20,15,19,15.40
2014,06,20,15,20,15.30
2014,06,20,15,21,15.30
2014,06,20,15,22,15.20
2014,06,20,15,23,15.20
2014,06,20,15,24,15.20
2014,06,20,15,25,15.30
2014,06,20,15,26,15.30
2014,06,20,15,27,15.30
2014,06,20,15,28,15.40
2014,06,20,15,29,15.40
2014,06,20,15,30,15.50
2014,06,20,15,31,15.50
2014,06,20,15,32,15.60
2014,06,20,15,33,15.60
2014,06,20,15,34,15.70
2014,06,20,15,35,15.80
2014,06,20,15,36,15.80
2014,06,20,15,37,15.80
2014,06,20,15,38,15.90
2014,06,20,15,39,15.90
2014,06,20,15,40,15.90
2014,06,20,15,41,15.90
2014,06,20,15,42,15.90
2014,06,20,15,43,15.90
2014,06,20,15,44,15.90
2014,06,20,15,45,15.90
2014,06,20,15,46,15.90
2014,06,20,15,47,15.80
2014,06,20,15,48,15.80
2014,06,20,15,49,15.70
2014,06,20,15,50,15.70
2014,06,20,15,51,15.70
2014,06,20,15,52,15.80
2014,06,20,15,53,15.80
2014,06,20,15,54,15.80
2014,06,20,15,55,15.80
2014,06,20,15,56,15.80
2014,06,20,15,57,15.80
2014,06,20,15,58,15.90
2014,06,20,15,59,15.90
2014,06,20,16,00,16.00
2014,06,20,16,01,16.00
2014,06,20,16,02,16.10
2014,06,20,16,03,16.10
2014,06,20,16,04,16.10
2014,06,20,16,05,16.10
2014,06,20,16,06,16.10
2014,06,20,16,07,16.10
2014,06,20,16,08,16.10
2014,06,20,16,09,16.00
2014,06,20,16,10,16.00
2014,06,20,16,11,15.90
2014,06,20,16,12,15.90
2014,06,20,16,13,15.90
2014,06,20,16,14,15.90
2014,06,20,16,15,15.90
2014,06,20,16,16,15.90
2014,06,20,16,17,15.90
2014,06,20,16,18,15.90
2014,06,20,16,19,15.90
2014,06,20,16,20,15.90
2014,06,20,16,21,15.90
2014,06,20,16,22,16.00
2014,06,20,16,23,16.10
2014,06,20,16,24,16.20
2014,06,20,16,25,16.30
2014,06,20,16,26,16.40
2014,06,20,16,27,16.50
2014,06,20,16,28,16.60
2014,06,20,16,29,16.70
2014,06,20,16,30,16.70
2014,06,20,16,31,16.70
2014,06,20,16,32,16.80
2014,06,20,16,33,16.80
2014,06,20,16,34,16.80
2014,06,20,16,35,16.70
2014,06,20,16,36,16.70
2014,06,20,16,37,16.80
2014,06,20,16,38,16.80
2014,06,20,16,39,16.80
2014,06,20,16,40,16.90
2014,06,20,16,41,17.00
2014,06,20,16,42,17.10
2014,06,20,16,43,17.30
2014,06,20,16,44,17.40
2014,06,20,16,45,17.50
2014,06,20,16,46,17.70
2014,06,20,16,47,17.80
2014,06,20,16,48,17.80
2014,06,20,16,49,17.90
2014,06,20,16,50,17.90
2014,06,20,16,51,18.00
2014,06,20,16,52,18.10
2014,06,20,16,53,18.20
2014,06,20,16,54,18.30
2014,06,20,16,55,18.40
2014,06,20,16,56,18.50
2014,06,20,16,57,18.60
2014,06,20,16,58,18.70
2014,06,20,16,59,18.70
2014,06,20,17,00,18.70
2014,06,20,17,01,18.70
2014,06,20,17,02,18.70
2014,06,20,17,03,18.70
2014,06,20,17,04,18.80
2014,06,20,17,05,19.00
2014,06,20,17,06,19.10
2014,06,20,17,07,19.20
2014,06,20,17,08,19.20
2014,06,20,17,09,19.20
2014,06,20,17,10,19.10
2014,06,20,17,11,19.10
2014,06,20,17,12,19.10
2014,06,20,17,13,19.10
2014,06,20,17,14,19.10
2014,06,20,17,15,19.20
2014,06,20,17,16,19.20
2014,06,20,17,17,19.20
2014,06,20,17,18,19.20
2014,06,20,17,19,19.20
2014,06,20,17,20,19.10
2014,06,20,17,21,19.00
2014,06,20,17,22,19.00
2014,06,20,17,23,18.90
2014,06,20,17,24,19.00
2014,06,20,17,25,19.00
2014,06,20,17,26,19.00
2014,06,20,17,27,18.90